カタログに戻る

TAIJING-2 04

運用中科学SSO
NORAD 58820·PAYLOAD·🇨🇳 China

打ち上げ Jan 23, 2024 から Jiuquan Satellite Launch Center

Loading…

次のパス (今後24時間)

TLE

最新Source: Space-Track

元期: Sep 14, 2026, 22:25 UTC

1 58820U 24016A   26257.93403968  .00043038  00000-0  51785-3 0  9997
2 58820  97.4472 357.2952 0005832  85.2978 274.8945 15.60702980148042

AllMySatでTAIJING-2 04をリアルタイム追跡

Download on the App Store